Regional Weather Roundup
Issued by NWS Kansas City/Pleasant Hill, MO

Home | Current Version | Previous Version | Text Only | Print | Product List | Glossary On
Versions: 1 2 3 4 5 6 7 8 9 10 11 12 13 14 15 16 17 18 19 20 21 22 23 24 25 26 27 28 29 30 31 32 33 34 35 36 37 38 39 40 41 42 43 44 45 46 47 48 49 50
000
ASUS43 KEAX 292204
RWREAX

WEATHER ROUNDUP FOR EASTERN KANSAS AND NORTHWEST MISSOURI
NATIONAL WEATHER SERVICE KANSAS CITY/PLEASANT HILL MO
500 PM CDT FRI AUG 29 2014

KSZ040-057-103>105-MOZ028-029-037-043-292300-
...KANSAS CITY METROPOLITAN AREA...

CITY           SKY/WX    TMP DP  RH WIND       PRES   REMARKS
K.C. INTL      MOSUNNY   82  68  62 S13       29.81F
K.C. DOWNTOWN  PTSUNNY   85  67  54 S13       29.81S
LEES SUMMIT    MOSUNNY   80  66  62 VRB6      29.84R
OLATHE - IXD   MOSUNNY   86  65  49 S12       29.82F
OLATHE - OJC   MOSUNNY   83  67  58 S10       29.82S
LAWRENCE       MOSUNNY   91  64  40 SW13G26   29.79S HX  92

$$

MOZ001>008-011>017-020>025-030>033-038>040-044>046-053-054-292300-
...NORTHERN AND CENTRAL MISSOURI...

CITY           SKY/WX    TMP DP  RH WIND       PRES   REMARKS
ST. JOSEPH     MOSUNNY   80  70  71 S7        29.79F
MOSBY          PTCLDY    81  66  61 S8        29.82R
WHITEMAN AFB   NOT AVBL
CLINTON        CLOUDY    82  70  65 SW7       29.85F
SEDALIA        MOSUNNY   82  67  60 SW9G18    29.85F
WARSAW         NOT AVBL
MARSHALL       MOSUNNY   82  72  69 SW9       29.84F
CHILLICOTHE      N/A     79  70  74 S5        29.83R
MOBERLY        PTSUNNY   81  70  69 S8        29.84F
KIRKSVILLE     CLOUDY    77  72  84 SW6       29.82F

$$

MOZ041-047>049-056>058-063>065-088>090-097-292300-
...EASTERN AND SOUTHERN MISSOURI...

CITY           SKY/WX    TMP DP  RH WIND       PRES   REMARKS
ST. LOUIS INTL MOSUNNY   91  64  40 SE17G25   29.85S HX  92
SPIRIT OF STL  PTSUNNY   89  66  46 S9        29.83S HX  91
COLUMBIA       PTSUNNY   79  73  82 S12       29.86S
JEFFERSON CITY CLOUDY    78  72  81 CALM      29.85F
ROLLA          CLOUDY    77  69  76 SW3       29.87S
LEBANON        PTSUNNY   75  70  83 W7        29.91S
OSAGE BEACH    PTSUNNY   79  70  73 S6        29.86F
SPRINGFIELD    CLOUDY    85  62  46 W12       29.88S
BRANSON        LGT RAIN  79  68  69 S9        29.92R
NEVADA         MOSUNNY   86  66  51 SW8       29.86S
JOPLIN         PTSUNNY   88  62  41 SW12G20   29.87S
WEST PLAINS    LGT RAIN  73  69  87 S6        29.95R

$$

IAZ060-094-KSZ022-034>040-054-083-096-NEZ052-066-093-292300-
...KANSAS...SOUTHEAST NEBRASKA AND IOWA...

CITY           SKY/WX    TMP DP  RH WIND       PRES   REMARKS
TOPEKA         MOSUNNY   89  66  46 S13       29.77F HX  91
MANHATTAN      SUNNY     89  63  41 SW7       29.78F HX  90
EMPORIA        MOSUNNY   89  62  40 SW13G24   29.80F
CHANUTE        PTSUNNY   88  62  41 SW12G22   29.83F
WICHITA        PTSUNNY   85  65  51 SW15G22   29.83S
OMAHA          HVY RAIN  69  66  90 W5        29.79R FOG
LINCOLN        CLOUDY    72  64  76 W6        29.80S
FALLS CITY     MOSUNNY   83  67  58 SW7       29.77F
DES MOINES     LGT RAIN  74  69  85 S8        29.80R

$$




USA.gov is the U.S. government's official web portal to all federal, state and local government web resources and services.